User: anonymous   Login
Location: Tamazert
(32.6352°N, 5.2072°W)
Time: 15:06:36
(UTC+00:00)
Language:

THORAD AGENA D DEB - Orbit

View from above orbital plane
View from above orbital plane
View from above satellite
View from above satellite

Ground track
Ground track

The orbit data is extracted from the following two-line orbital elements,

1 42499U 70025RD  23086.21255670  .00001445  00000-0  15241-2 0  9998
2 42499 100.1595 263.2947 0005803 347.9516  12.1492 13.76630514469087
Epoch (UTC): 27 March 2023 05:06:04
Eccentricity: 0.0005803
inclination: 100.1595°
perigee height: 971 km
apogee height: 980 km
right ascension of ascending node: 263.2947°
argument of perigee: 347.9516°
revolutions per day: 13.76630514
mean anomaly at epoch: 12.1492°
orbit number at epoch: 46908

The dashed part of the orbit path shows where the satellite is in the earth's shadow,  

DLR